[[{"header":{"parameterUnit":"m.s-1","parameterCategory":1,"la1":30.2991,"la2":30.254,"lo1":-89.0895,"lo2":-89.0444,"dy":0.0017,"dx":0.0017,"nx":28,"ny":28,"refTime":"2024-02-19T03:00:00:Z","depth":0,"parameterNumber":2,"parameterNumberName":"U-component_of_WINDS"},"data":[0,0,0,0,0,0,0,0,0,0,0,0,0,0,0,0,0,0,0,0,0,0,0,0,0,0,0,0,0,0,0,0,0,0,0,0,0,0,0,0,0,0,0,0,0,0,0,0,0,0,0,0,0,0,0,0,0,0,1.7244,1.7245,0,1.738,1.7381,1.7383,1.7434,1.7433,1.7433,1.7432,1.7568,1.7572,1.7576,0,0,0,0,0,0,0,0,0,0,0,0,0,1.7025,1.7029,1.7244,1.7246,1.7247,1.7379,1.7381,1.7383,1.7434,1.7433,1.7433,1.7432,1.7566,1.7571,1.7576,0,0,0,0,0,0,0,0,0,0,0,0,0,1.7136,1.703,1.7244,1.7289,1.7294,1.7379,1.7381,1.7383,1.7434,1.7433,1.7433,1.7432,1.7565,1.7571,1.7577,1.7626,0,0,1.7595,1.7597,0,0,0,0,0,0,0,0,1.713,1.7144,1.728,1.7286,1.7292,1.7389,1.7354,1.7464,1.7434,1.7381,1.7432,1.7432,1.7509,1.7519,1.7546,1.7632,1.7638,1.7595,1.7599,1.7602,1.7603,0,0,0,0,0,0,0,1.7122,1.7138,1.7297,1.7282,1.7289,1.7301,1.7316,1.7375,1.7446,1.7385,1.7389,1.7405,1.7512,1.754,1.7549,1.764,1.7595,1.76,1.7604,1.7606,1.7772,1.7773,0,0,0,0,0,0,1.7107,1.7132,1.7293,1.7301,1.7208,1.7305,1.7322,1.7358,1.7446,1.7459,1.7405,1.7407,1.753,1.7542,1.7554,1.7617,1.7601,1.7607,1.761,1.7771,1.7772,1.7773,0,0,0,0,0,0,1.7102,1.7121,1.7288,1.7218,1.724,1.731,1.735,1.7361,1.739,1.7461,1.7473,1.7421,1.753,1.7546,1.7608,1.7622,1.761,1.7615,1.777,1.7771,1.7772,1.7743,0,0,0,0,0,0,1.7096,1.7119,1.7139,1.7218,1.7243,1.734,1.7351,1.7365,1.74,1.7404,1.7479,1.7491,1.7531,1.7598,1.7613,1.763,1.762,1.7769,1.7771,1.7772,1.7743,1.7743,1.7743,0,0,0,0,0,1.7088,1.7125,1.714,1.7159,1.727,1.734,1.7355,1.7401,1.7401,1.7422,1.7467,1.7489,1.7618,1.7604,1.7622,1.764,1.7768,1.777,1.7772,1.7743,1.7743,1.7743,0,0,0,0,0,0,1.7045,1.7136,1.7154,1.7218,1.7271,1.7349,1.7376,1.7399,1.7453,1.7453,1.7507,1.7523,1.758,1.7617,1.7599,1.7692,1.7695,1.77,1.7666,1.7667,1.7667,1.7657,1.7625,0,0,0,0,0,1.7044,1.7094,1.717,1.7219,1.7245,1.7306,1.7338,1.7369,1.7426,1.7448,1.7498,1.7551,1.7604,1.7638,1.769,1.7748,1.7765,1.777,1.777,1.7769,1.7773,1.7806,1.7808,1.7779,1.7779,1.7779,0,0,1.704,1.7096,1.7124,1.7212,1.7257,1.7307,1.7324,1.7377,1.7414,1.7456,1.7517,1.7555,1.7618,1.7678,1.7707,1.771,1.7785,1.7772,1.7771,1.7775,1.7808,1.7811,1.7813,1.778,1.778,1.778,0,0,1.7059,1.7107,1.7153,1.7197,1.7266,1.7306,1.7316,1.7391,1.7418,1.7481,1.7513,1.7558,1.7648,1.7691,1.7725,1.7759,1.7781,1.7775,1.7775,1.7806,1.7808,1.7811,1.7822,1.7826,1.7779,1.7779,1.7778,0,1.7046,1.7124,1.7173,1.7224,1.726,1.7302,1.7348,1.7388,1.7469,1.7493,1.7496,1.7609,1.7655,1.7725,1.7733,1.776,1.7773,1.7766,1.7804,1.7807,1.781,1.7822,1.7826,1.7777,1.7777,1.7778,1.7778,0,1.7103,1.7156,1.7185,1.7263,1.7304,1.7351,1.7407,1.7441,1.7468,1.7508,1.757,1.7626,1.769,1.7709,1.7736,1.7783,1.7783,1.7794,1.7798,1.7811,1.7823,1.7828,1.7776,1.7776,1.7776,1.7777,0,0,1.7099,1.7205,1.7214,1.725,1.7328,1.7369,1.7418,1.7482,1.751,1.7564,1.7606,1.7681,1.7692,1.773,1.7762,1.7789,1.7812,1.7798,1.78,1.7798,1.7867,1.7857,1.7862,1.7827,1.7828,1.7829,1.7861,0,1.7128,1.7219,1.7265,1.7335,1.7384,1.7424,1.7467,1.7518,1.7556,1.7602,1.7644,1.7696,1.7707,1.773,1.7759,1.7803,1.7827,1.7802,1.7865,1.7867,1.7848,1.7868,1.7859,1.7886,1.7866,1.7867,1.7868,0,1.7174,1.7229,1.7305,1.7377,1.7399,1.7436,1.7498,1.7542,1.7601,1.7627,1.7669,1.77,1.7752,1.7752,1.7823,1.7805,1.7834,1.786,1.7862,1.7869,1.7868,1.7875,1.7896,1.79,1.7876,1.7875,1.7874,0,1.7162,1.7255,1.7313,1.7342,1.7427,1.7453,1.7489,1.7548,1.7583,1.7636,1.766,1.7718,1.775,1.7794,1.7839,1.7835,1.7906,1.791,1.7927,1.7926,1.794,1.7939,1.7965,1.7959,1.7959,1.7959,1.7959,0,1.719,1.7234,1.7309,1.7344,1.7394,1.7446,1.7494,1.7533,1.7585,1.7627,1.7665,1.7704,1.7762,1.7807,1.7843,1.7896,1.791,1.7932,1.7941,1.7928,1.7925,1.7947,1.7946,1.796,1.796,1.796,1.796,0,1.7185,1.7237,1.7302,1.7378,1.7397,1.7431,1.7495,1.753,1.757,1.7623,1.7639,1.77,1.7756,1.7806,1.788,1.7904,1.7958,1.7969,1.7938,1.7943,1.7957,1.7955,1.7999,1.8007,1.7995,1.7995,1.7996,0,1.7199,1.7234,1.7314,1.7345,1.7381,1.7432,1.7468,1.752,1.7556,1.7625,1.7651,1.771,1.776,1.7846,1.7897,1.7953,1.7966,1.7978,1.7975,1.7961,1.7966,1.7963,1.7966,1.7977,1.7977,1.7977,1.7977,0,1.7217,1.7241,1.7293,1.7353,1.7395,1.7445,1.7496,1.7519,1.758,1.7618,1.7676,1.7715,1.779,1.7848,1.791,1.7946,1.7971,1.7977,1.7984,1.7972,1.7952,1.7962,1.7936,1.7976,1.7976,1.7976,1.7976,1.7976,1.7222,1.7255,1.7316,1.7372,1.7416,1.7462,1.7499,1.7543,1.7593,1.7659,1.7686,1.7744,1.7801,1.7887,1.7924,1.7969,1.7974,1.7984,1.7987,1.7988,1.7986,1.7945,1.7981,1.7981,1.7981,1.7981,1.7981,0,1.7242,1.7283,1.7334,1.7404,1.7448,1.7469,1.7526,1.756,1.7612,1.7664,1.7712,1.7778,1.7834,1.7889,1.7947,1.7973,1.7986,1.7987,1.7985,1.7993,1.7979,1.7967,1.7975,1.7975,1.7975,1.7975,1.7975,1.7975,1.7257,1.7314,1.7345,1.7423,1.7464,1.7522,1.7553,1.7596,1.7637,1.771,1.7757,1.7793,1.7846,1.7908,1.796,1.7974,1.7994,1.7991,1.8009,1.7994,1.7994,1.7994,1.7983,1.7995,1.7995,1.802,1.802,1.802]},{"header":{"parameterUnit":"m.s-1","parameterCategory":1,"la1":30.2991,"la2":30.254,"lo1":-89.0895,"lo2":-89.0444,"dy":0.0017,"dx":0.0017,"nx":28,"ny":28,"refTime":"2024-02-19T03:00:00:Z","depth":0,"parameterNumber":3,"parameterNumberName":"V-component_of_WINDS"},"data":[0,0,0,0,0,0,0,0,0,0,0,0,0,0,0,0,0,0,0,0,0,0,0,0,0,0,0,0,0,0,0,0,0,0,0,0,0,0,0,0,0,0,0,0,0,0,0,0,0,0,0,0,0,0,0,0,0,0,1.623,1.6229,0,1.6176,1.6175,1.6175,1.6126,1.6125,1.6124,1.6124,1.6068,1.6067,1.6066,0,0,0,0,0,0,0,0,0,0,0,0,0,1.6287,1.6286,1.623,1.6229,1.6228,1.6176,1.6175,1.6175,1.6126,1.6125,1.6124,1.6124,1.6068,1.6067,1.6066,0,0,0,0,0,0,0,0,0,0,0,0,0,1.6251,1.6286,1.623,1.6198,1.6194,1.6176,1.6175,1.6174,1.6126,1.6125,1.6124,1.6123,1.6068,1.6067,1.6065,1.6074,0,0,1.6061,1.606,0,0,0,0,0,0,0,0,1.6253,1.6249,1.6203,1.62,1.6196,1.6157,1.6175,1.6141,1.6126,1.6152,1.6124,1.6123,1.6098,1.6094,1.6086,1.6072,1.6069,1.6061,1.606,1.606,1.6059,0,0,0,0,0,0,0,1.6255,1.6251,1.6208,1.6202,1.6198,1.6185,1.6179,1.6168,1.613,1.6149,1.6146,1.614,1.6096,1.6087,1.6084,1.6069,1.6061,1.606,1.6059,1.6058,1.6057,1.6057,0,0,0,0,0,0,1.6263,1.6253,1.621,1.6207,1.6223,1.6185,1.6178,1.617,1.613,1.6123,1.6141,1.6138,1.609,1.6086,1.6082,1.6088,1.606,1.6058,1.6057,1.6056,1.6057,1.6058,0,0,0,0,0,0,1.6264,1.626,1.6212,1.6229,1.6222,1.6185,1.6176,1.617,1.6161,1.6124,1.6117,1.6139,1.6089,1.6084,1.6076,1.6085,1.6058,1.6056,1.6055,1.6056,1.6057,1.6102,0,0,0,0,0,0,1.6266,1.6261,1.6264,1.6229,1.6221,1.6209,1.6177,1.6169,1.6159,1.6155,1.6121,1.6114,1.6088,1.6079,1.6075,1.6083,1.6055,1.6054,1.6055,1.6057,1.6099,1.6104,1.6109,0,0,0,0,0,1.6269,1.6279,1.6265,1.626,1.6225,1.6209,1.6204,1.6175,1.616,1.6163,1.6138,1.6115,1.6085,1.6078,1.6074,1.6082,1.6053,1.6055,1.6057,1.6097,1.6103,1.6109,0,0,0,0,0,0,1.6317,1.6274,1.6258,1.6258,1.6237,1.6201,1.6204,1.6182,1.6166,1.6162,1.6125,1.6118,1.6114,1.6097,1.609,1.6087,1.6066,1.6067,1.6098,1.6104,1.6108,1.6112,1.6054,0,0,0,0,0,1.6327,1.6318,1.6282,1.6285,1.6276,1.6242,1.6234,1.6212,1.6189,1.6181,1.6156,1.6134,1.6119,1.6111,1.6095,1.6097,1.6087,1.61,1.6104,1.6108,1.6109,1.6106,1.6111,1.6063,1.6063,1.6063,0,0,1.6349,1.6325,1.6321,1.6294,1.6276,1.6266,1.6235,1.6227,1.6219,1.6179,1.617,1.6151,1.6124,1.612,1.6118,1.6106,1.612,1.6111,1.6114,1.6113,1.6109,1.6113,1.6117,1.6065,1.6064,1.6064,0,0,1.6384,1.6365,1.6365,1.6347,1.632,1.6297,1.6297,1.6263,1.6249,1.6239,1.6209,1.6198,1.6175,1.6156,1.6143,1.6169,1.6146,1.6165,1.6189,1.6187,1.6191,1.6194,1.6201,1.6204,1.6166,1.6166,1.6166,0,1.6414,1.6399,1.6368,1.6361,1.6349,1.6312,1.6311,1.6295,1.6264,1.6256,1.6243,1.6211,1.6191,1.6181,1.6187,1.6179,1.6176,1.6169,1.6193,1.6195,1.6198,1.6204,1.6208,1.6169,1.6168,1.6168,1.6168,0,1.6437,1.6427,1.643,1.6401,1.6389,1.6386,1.6352,1.6344,1.6323,1.6301,1.629,1.6264,1.6242,1.6238,1.6218,1.6225,1.6218,1.62,1.6178,1.6205,1.6211,1.6213,1.6172,1.6171,1.617,1.617,0,0,1.6501,1.6454,1.6455,1.6441,1.6407,1.6398,1.6391,1.637,1.6363,1.6342,1.6334,1.6314,1.6296,1.6282,1.6259,1.6257,1.6277,1.6239,1.6237,1.6246,1.628,1.6294,1.6297,1.6261,1.6262,1.6262,1.6282,0,1.653,1.6517,1.6487,1.6483,1.6472,1.6436,1.643,1.6408,1.6387,1.6374,1.635,1.6335,1.6314,1.6305,1.6301,1.6275,1.6283,1.6273,1.6253,1.6252,1.626,1.63,1.6315,1.6335,1.6284,1.6285,1.6285,0,1.6561,1.6542,1.6537,1.6502,1.6497,1.6492,1.6468,1.6457,1.643,1.6415,1.6398,1.6372,1.6362,1.6342,1.6326,1.632,1.6309,1.6295,1.6295,1.6291,1.627,1.6297,1.6341,1.6344,1.6288,1.6288,1.6288,0,1.6607,1.658,1.6573,1.6562,1.6522,1.6519,1.6501,1.6474,1.6462,1.6441,1.6433,1.6411,1.6399,1.6382,1.635,1.6339,1.6337,1.6315,1.6322,1.6323,1.6323,1.6323,1.6366,1.6318,1.6318,1.6318,1.6318,0,1.6641,1.6639,1.6593,1.6589,1.6584,1.6549,1.6546,1.6525,1.6501,1.649,1.6458,1.6449,1.6408,1.6394,1.6369,1.6358,1.6353,1.6339,1.6332,1.6341,1.6343,1.6333,1.6331,1.6319,1.6319,1.6318,1.6318,0,1.6692,1.6661,1.6651,1.6613,1.6603,1.6601,1.6568,1.6562,1.6538,1.6525,1.652,1.6482,1.6463,1.643,1.6402,1.6385,1.6378,1.6368,1.6388,1.6383,1.6392,1.6391,1.6429,1.6431,1.6384,1.6384,1.6385,0,1.6715,1.6713,1.6674,1.6665,1.6649,1.6635,1.6623,1.6587,1.6576,1.6544,1.6541,1.6519,1.65,1.6471,1.644,1.6418,1.6405,1.642,1.6402,1.641,1.6404,1.6404,1.6403,1.6424,1.6425,1.6425,1.6426,0,1.676,1.6744,1.6728,1.6706,1.6692,1.6673,1.6652,1.6646,1.6605,1.6593,1.6574,1.6559,1.6529,1.6507,1.648,1.6461,1.6436,1.6432,1.6432,1.6441,1.6452,1.6445,1.6398,1.6431,1.6431,1.643,1.643,1.643,1.6797,1.6792,1.6764,1.6746,1.6726,1.6707,1.6698,1.6673,1.6656,1.663,1.661,1.6591,1.6562,1.6522,1.6504,1.6488,1.6477,1.6478,1.6478,1.6478,1.6481,1.6455,1.6483,1.6483,1.6483,1.6482,1.6482,0,1.6838,1.6818,1.6802,1.6774,1.6759,1.6737,1.6712,1.6701,1.6686,1.6661,1.6642,1.6619,1.6597,1.6564,1.6539,1.6532,1.652,1.6527,1.6526,1.6522,1.6493,1.6495,1.6537,1.6537,1.6537,1.6537,1.6537,1.6537,1.6859,1.6849,1.683,1.6809,1.6788,1.677,1.6757,1.6739,1.6718,1.6693,1.6675,1.6654,1.6625,1.6598,1.6576,1.6567,1.6558,1.6568,1.6555,1.6529,1.6524,1.6519,1.6521,1.6567,1.6567,1.6585,1.6585,1.6585]}]]